Hourly Weather Lugowo

Today, 17 May, Monday

Time Temperature Precipitation Wind Pressure Humidity
00:00 +8°C° 0.1 mm 2 mps 744 mmHg 92%
01:00 +8°C° 0 mm 2 mps 744 mmHg 93%
02:00 +8°C° 0 mm 2 mps 744 mmHg 93%
03:00 +8°C° 0 mm 2 mps 743 mmHg 93%
04:00 +7°C° 0 mm 2 mps 743 mmHg 93%
05:00 +9°C° 0 mm 2 mps 744 mmHg 90%
06:00 +10°C° 0 mm 2 mps 744 mmHg 87%
07:00 +11°C° 0 mm 3 mps 744 mmHg 84%
08:00 +13°C° 0 mm 3 mps 744 mmHg 76%
09:00 +14°C° 0 mm 3 mps 744 mmHg 69%
10:00 +17°C° 0 mm 3 mps 744 mmHg 61%
11:00 +17°C° 0.2 mm 3 mps 744 mmHg 61%
12:00 +17°C° 0.2 mm 4 mps 745 mmHg 61%
13:00 +17°C° 0.2 mm 4 mps 745 mmHg 60%
14:00 +17°C° 0.2 mm 4 mps 745 mmHg 63%
15:00 +17°C° 0.2 mm 3 mps 745 mmHg 65%
16:00 +16°C° 0.2 mm 3 mps 745 mmHg 67%
17:00 +14°C° 0.2 mm 3 mps 745 mmHg 72%
18:00 +14°C° 0.2 mm 3 mps 745 mmHg 77%
19:00 +13°C° 0.2 mm 3 mps 745 mmHg 81%
20:00 +12°C° 0.1 mm 3 mps 746 mmHg 85%
21:00 +11°C° 0.1 mm 4 mps 746 mmHg 88%
22:00 +11°C° 0.1 mm 4 mps 746 mmHg 91%
23:00 +10°C° 0 mm 4 mps 747 mmHg 92%

Tomorrow, 18 May, Tuesday

Time Temperature Precipitation Wind Pressure Humidity
00:00 +10°C° 0 mm 4 mps 747 mmHg 92%
01:00 +10°C° 0 mm 4 mps 747 mmHg 92%
02:00 +8°C° 0 mm 4 mps 747 mmHg 93%
03:00 +7°C° 0 mm 4 mps 747 mmHg 94%
04:00 +7°C° 0 mm 4 mps 748 mmHg 95%
05:00 +8°C° 0 mm 4 mps 748 mmHg 93%
06:00 +8°C° 0 mm 4 mps 748 mmHg 90%
07:00 +10°C° 0 mm 4 mps 748 mmHg 88%
08:00 +10°C° 0.1 mm 5 mps 748 mmHg 85%
09:00 +12°C° 0.1 mm 5 mps 749 mmHg 81%
10:00 +13°C° 0.1 mm 5 mps 749 mmHg 78%
11:00 +14°C° 0.3 mm 5 mps 749 mmHg 73%
12:00 +15°C° 0.3 mm 5 mps 749 mmHg 67%
13:00 +16°C° 0.3 mm 5 mps 749 mmHg 62%
14:00 +16°C° 0.1 mm 5 mps 749 mmHg 60%
15:00 +16°C° 0.1 mm 5 mps 749 mmHg 58%
16:00 +16°C° 0.1 mm 5 mps 749 mmHg 55%
17:00 +15°C° 0.1 mm 4 mps 749 mmHg 64%
18:00 +13°C° 0.1 mm 4 mps 749 mmHg 72%
19:00 +12°C° 0.1 mm 4 mps 750 mmHg 81%
20:00 +11°C° 0 mm 3 mps 750 mmHg 85%
21:00 +10°C° 0 mm 3 mps 750 mmHg 90%
22:00 +9°C° 0 mm 3 mps 750 mmHg 94%
23:00 +9°C° 0 mm 3 mps 751 mmHg 95%

Day after tomorrow, 19 May, Wednesday

Time Temperature Precipitation Wind Pressure Humidity
00:00 +8°C° 0 mm 3 mps 751 mmHg 95%
01:00 +7°C° 0 mm 4 mps 751 mmHg 96%
02:00 +7°C° 0 mm 3 mps 751 mmHg 96%
03:00 +7°C° 0 mm 3 mps 751 mmHg 96%
04:00 +5°C° 0 mm 3 mps 751 mmHg 97%
05:00 +7°C° 0 mm 3 mps 751 mmHg 95%
06:00 +8°C° 0 mm 3 mps 752 mmHg 93%
07:00 +9°C° 0 mm 3 mps 752 mmHg 90%
08:00 +10°C° 0.1 mm 3 mps 752 mmHg 90%
09:00 +10°C° 0.1 mm 4 mps 752 mmHg 89%
10:00 +10°C° 0.1 mm 4 mps 752 mmHg 89%
11:00 +10°C° 0.2 mm 4 mps 752 mmHg 88%
12:00 +9°C° 0.2 mm 5 mps 753 mmHg 87%
13:00 +9°C° 0.2 mm 5 mps 753 mmHg 86%
14:00 +9°C° 0 mm 5 mps 753 mmHg 83%
15:00 +9°C° 0 mm 5 mps 753 mmHg 80%
16:00 +11°C° 0 mm 4 mps 753 mmHg 77%
17:00 +10°C° 0 mm 3 mps 753 mmHg 78%
18:00 +10°C° 0 mm 3 mps 753 mmHg 80%
19:00 +9°C° 0 mm 2 mps 753 mmHg 81%
20:00 +9°C° 0 mm 2 mps 754 mmHg 83%
21:00 +9°C° 0 mm 1 mps 754 mmHg 85%
22:00 +8°C° 0 mm 1 mps 754 mmHg 86%
23:00 +7°C° 0 mm 2 mps 754 mmHg 88%

20 May, Thursday

Time Temperature Precipitation Wind Pressure Humidity
00:00 +6°C° 0 mm 2 mps 754 mmHg 90%
01:00 +6°C° 0 mm 2 mps 754 mmHg 91%
02:00 +6°C° 0 mm 2 mps 754 mmHg 92%
03:00 +5°C° 0 mm 2 mps 754 mmHg 94%
04:00 +5°C° 0 mm 2 mps 755 mmHg 95%
05:00 +7°C° 0 mm 2 mps 755 mmHg 89%
06:00 +9°C° 0 mm 3 mps 755 mmHg 83%
07:00 +10°C° 0 mm 3 mps 755 mmHg 77%
08:00 +11°C° 0.2 mm 3 mps 755 mmHg 76%
09:00 +12°C° 0.2 mm 4 mps 755 mmHg 74%
10:00 +13°C° 0.2 mm 4 mps 756 mmHg 73%
11:00 +13°C° 0.3 mm 5 mps 755 mmHg 69%
12:00 +14°C° 0.3 mm 5 mps 755 mmHg 65%
13:00 +15°C° 0.3 mm 5 mps 755 mmHg 60%
14:00 +15°C° 0.1 mm 5 mps 755 mmHg 59%
15:00 +15°C° 0.1 mm 6 mps 756 mmHg 58%
16:00 +15°C° 0.1 mm 6 mps 756 mmHg 57%
17:00 +14°C° 0.1 mm 6 mps 756 mmHg 60%
18:00 +12°C° 0.1 mm 5 mps 756 mmHg 64%
19:00 +11°C° 0.1 mm 4 mps 756 mmHg 67%
20:00 +10°C° 0 mm 4 mps 757 mmHg 73%
21:00 +8°C° 0 mm 3 mps 757 mmHg 78%
22:00 +5°C° 0 mm 3 mps 757 mmHg 83%
23:00 +6°C° 0 mm 2 mps 757 mmHg 87%

21 May, Friday

Time Temperature Precipitation Wind Pressure Humidity
00:00 +5°C° 0 mm 2 mps 757 mmHg 90%
01:00 +5°C° 0 mm 2 mps 757 mmHg 93%
02:00 +5°C° 0 mm 2 mps 757 mmHg 93%
03:00 +5°C° 0 mm 2 mps 757 mmHg 93%
04:00 +5°C° 0 mm 2 mps 757 mmHg 92%
05:00 +5°C° 0 mm 3 mps 757 mmHg 86%
06:00 +8°C° 0 mm 3 mps 757 mmHg 79%
07:00 +8°C° 0 mm 4 mps 757 mmHg 73%
08:00 +11°C° 0 mm 4 mps 756 mmHg 66%
09:00 +13°C° 0 mm 4 mps 756 mmHg 60%
10:00 +14°C° 0 mm 4 mps 756 mmHg 53%
11:00 +15°C° 0 mm 4 mps 755 mmHg 50%
12:00 +17°C° 0 mm 3 mps 755 mmHg 48%
13:00 +17°C° 0 mm 3 mps 754 mmHg 46%
14:00 +17°C° 0 mm 3 mps 754 mmHg 48%
15:00 +17°C° 0 mm 3 mps 753 mmHg 49%
16:00 +17°C° 0 mm 3 mps 753 mmHg 51%
17:00 +16°C° 0.1 mm 3 mps 753 mmHg 59%
18:00 +14°C° 0.1 mm 3 mps 752 mmHg 68%
19:00 +13°C° 0.1 mm 3 mps 752 mmHg 76%
20:00 +13°C° 0 mm 2 mps 752 mmHg 78%
21:00 +13°C° 0 mm 2 mps 751 mmHg 81%
22:00 +12°C° 0 mm 2 mps 751 mmHg 84%
23:00 +12°C° 0 mm 2 mps 751 mmHg 85%

22 May, Saturday

Time Temperature Precipitation Wind Pressure Humidity
00:00 +12°C° 0 mm 2 mps 750 mmHg 87%
01:00 +12°C° 0 mm 2 mps 750 mmHg 88%
02:00 +10°C° 0 mm 2 mps 749 mmHg 89%
03:00 +9°C° 0 mm 3 mps 749 mmHg 90%
04:00 +9°C° 0 mm 3 mps 748 mmHg 90%
05:00 +10°C° 0 mm 3 mps 748 mmHg 84%
06:00 +12°C° 0 mm 3 mps 748 mmHg 78%
07:00 +13°C° 0 mm 4 mps 748 mmHg 71%
08:00 +14°C° 0 mm 4 mps 748 mmHg 69%
09:00 +15°C° 0 mm 5 mps 748 mmHg 68%
10:00 +16°C° 0 mm 5 mps 748 mmHg 66%
11:00 +16°C° 0.2 mm 6 mps 749 mmHg 65%
12:00 +16°C° 0.2 mm 6 mps 749 mmHg 64%
13:00 +16°C° 0.2 mm 6 mps 749 mmHg 63%
14:00 +16°C° 0.1 mm 5 mps 749 mmHg 62%
15:00 +16°C° 0.1 mm 5 mps 749 mmHg 62%
16:00 +15°C° 0.1 mm 5 mps 749 mmHg 61%
17:00 +15°C° 0 mm 4 mps 749 mmHg 64%
18:00 +14°C° 0 mm 3 mps 749 mmHg 66%
19:00 +14°C° 0 mm 2 mps 749 mmHg 69%
20:00 +13°C° 0 mm 2 mps 750 mmHg 73%
21:00 +10°C° 0 mm 2 mps 750 mmHg 77%
22:00 +9°C° 0 mm 2 mps 750 mmHg 81%
23:00 +8°C° 0 mm 2 mps 750 mmHg 82%
Show more

We Need Your Consent

Meteoprog and our Service Providers may store and access personal data such as cookies, device identifiers or other similar technologies on your device and process such data to personalise content and ads, as well as provide social media features and to analyse the traffic.

  • Store and/or access information on your device

    Cookies, device identifiers or other information can be stored or accessed on your device for the purposes indicated above.

  • Personalised ads and content, ad and content measurement, audience insights, and products development

    Ads and content can be personalised based on a profile. More data can be added to better personalise ads and content. Ad and content performance can be measured. Insights about the audience who saw the ads and content can be derived. Such data can be used to develop or improve user’s experience, systems and software.

By clicking ‘I Agree’ you will allow the use of indicated cookies, device identifiers, web beacons or other similar technologies. Your settings can be changed in the browser on your device.

For certain purposes, legitimate interests may be relied on, rather than consent. You can read more about this in our Privacy and Cookie Policy.